Location: Brompton
(51.4000°N, 0.5333°E)
Time: 15:30:49
(UTC+00:00)

USA 306 - Pass Details

Date: 11 May 2021
Orbit: 565 x 575 km, 54.0° (Epoch: 11 May)

Event Time Altitude Azimuth Distance (km) Brightness Sun altitude
Rises 22:19:34 0° 290° (WNW) 2,775 7.1 -17.5°
Reaches altitude 10° 22:22:08 10° 277° (W) 1,876 5.9 -17.6°
Maximum altitude 22:25:33 24° 223° (SW) 1,206 4.3 -17.8°
Enters shadow 22:26:03 23° 212° (SSW) 1,223 4.2 -17.8°
